K4BS Weather Reports


Display with metric or nautical units.
time (UTC)temp
F
wind
direction
speed
MPH
gust
MPH
rain 1hr
in
rain 24hr
in
rain mn
in
humidity
%
barometer
mb
20210922165039 62 155 0.0 1.0 0.00 0.02 0.01 98 1017.2
20210922163038 63 187 1.0 5.0 0.00 0.02 0.01 99 1017.4
20210922162038 63 5 0.0 3.0 0.00 0.02 0.01 98 1017.4
20210922161038 64 229 0.0 3.0 0.00 0.02 0.01 98 1016.9
20210922160037 65 146 1.0 3.0 0.00 0.02 0.01 99 1017.0
20210922155038 66 268 0.0 3.0 0.00 0.02 0.01 99 1016.9
20210922154038 67 249 0.0 2.0 0.00 0.02 0.01 99 1016.9
20210922153038 67 249 0.0 5.0 0.00 0.02 0.01 99 1016.9
20210922152038 68 248 1.0 10.0 0.00 0.02 0.01 99 1016.7
20210922151038 69 340 0.0 2.0 0.00 0.02 0.01 99 1016.6
20210922150036 69 346 0.0 2.0 0.00 0.02 0.01 99 1016.4
20210922144038 68 346 0.0 0.0 0.00 0.02 0.01 99 1016.5
20210922143038 68 346 0.0 3.0 0.00 0.02 0.01 99 1016.5
20210922142038 68 350 0.0 0.0 0.00 0.02 0.01 99 1016.5
20210922141038 68 350 0.0 0.0 0.00 0.02 0.01 99 1016.5
20210922140037 68 350 0.0 0.0 0.00 0.02 0.01 99 1016.5
20210922134039 68 350 0.0 2.0 0.00 0.02 0.01 99 1016.6
20210922133038 68 350 0.0 1.0 0.00 0.02 0.01 99 1016.6
20210922132038 68 350 0.0 0.0 0.00 0.02 0.01 99 1016.6
20210922131038 67 350 0.0 0.0 0.00 0.02 0.01 99 1016.6
20210922130037 67 350 0.0 0.0 0.00 0.02 0.01 99 1016.8
20210922122038 67 350 0.0 0.0 0.00 0.03 0.01 99 1016.9
20210922115038 67 350 0.0 0.0 0.00 0.03 0.01 99 1017.0
20210922114037 67 350 0.0 0.0 0.00 0.03 0.01 99 1017.1
20210922113046 67 350 0.0 0.0 0.00 0.03 0.01 99 1017.0
20210922112038 67 350 0.0 0.0 0.00 0.03 0.01 99 1016.9
20210922110037 67 350 0.0 0.0 0.00 0.03 0.01 99 1016.9
20210922105038 67 350 0.0 0.0 0.00 0.03 0.01 99 1016.8
20210922104037 67 350 0.0 0.0 0.00 0.03 0.01 99 1016.8
20210922103037 67 350 0.0 0.0 0.00 0.03 0.01 99 1016.8
20210922102038 67 350 0.0 0.0 0.00 0.03 0.01 99 1017.0
20210922101038 67 350 0.0 0.0 0.00 0.03 0.01 99 1017.0
20210922095038 67 350 0.0 0.0 0.00 0.03 0.01 99 1017.2
20210922093038 67 350 0.0 0.0 0.00 0.03 0.01 99 1017.2
20210922092038 67 350 0.0 0.0 0.00 0.03 0.01 99 1017.3
20210922091037 67 350 0.0 0.0 0.00 0.03 0.01 99 1017.4
20210922085038 67 350 0.0 0.0 0.00 0.03 0.01 99 1017.7
20210922084039 67 350 0.0 0.0 0.00 0.03 0.01 99 1017.8
20210922082038 67 350 0.0 0.0 0.00 0.03 0.01 99 1017.9
20210922081038 67 350 0.0 0.0 0.00 0.03 0.01 99 1018.0
20210922080036 67 350 0.0 0.0 0.00 0.03 0.01 99 1018.1
20210922075038 67 350 0.0 0.0 0.00 0.03 0.01 99 1018.3
20210922074038 67 350 0.0 0.0 0.00 0.03 0.01 99 1018.3
20210922073039 67 350 0.0 0.0 0.00 0.03 0.01 99 1018.4
20210922072038 67 350 0.0 0.0 0.00 0.03 0.01 99 1018.6
20210922071038 67 350 0.0 0.0 0.00 0.03 0.01 99 1018.6
20210922070036 66 350 0.0 0.0 0.00 0.03 0.01 99 1018.9
20210922065037 66 350 0.0 0.0 0.01 0.03 0.01 99 1019.0
20210922064038 67 350 0.0 0.0 0.01 0.03 0.01 99 1019.1
20210922062037 67 350 0.0 0.0 0.01 0.03 0.01 99 1019.5
20210922060036 67 350 0.0 0.0 0.01 0.03 0.01 99 1019.7
20210922055037 67 350 0.0 0.0 0.00 0.03 0.00 99 1019.9
20210922053038 67 350 0.0 0.0 0.00 0.03 0.00 99 1020.1
20210922052038 67 350 0.0 0.0 0.00 0.03 0.00 99 1020.2
20210922051038 67 350 0.0 0.0 0.00 0.03 0.00 99 1020.4
20210922050035 67 350 0.0 0.0 0.00 0.03 0.00 99 1020.4
20210922044038 67 350 0.0 1.0 0.00 0.03 0.00 99 1020.9
20210922043038 67 350 0.0 0.0 0.00 0.03 0.00 99 1021.0
20210922042038 67 350 0.0 0.0 0.00 0.03 0.00 99 1021.0
20210922041038 67 350 0.0 0.0 0.00 0.03 0.00 99 1021.0
20210922040037 67 350 0.0 0.0 0.00 0.03 0.00 99 1021.1
20210922035037 67 350 0.0 0.0 0.00 0.03 0.03 99 1021.3
20210922033037 67 350 0.0 0.0 0.00 0.03 0.03 99 1021.3
20210922032037 67 350 0.0 0.0 0.00 0.03 0.03 99 1021.2
20210922030036 68 350 0.0 0.0 0.00 0.03 0.03 99 1021.4
20210922025038 68 350 0.0 0.0 0.00 0.03 0.03 99 1021.5
20210922024037 68 350 0.0 0.0 0.00 0.03 0.03 99 1021.5
20210922023038 68 350 0.0 0.0 0.00 0.03 0.03 99 1021.5
20210922022037 68 350 0.0 0.0 0.00 0.03 0.03 99 1021.5
20210922015037 68 350 0.0 0.0 0.00 0.03 0.03 99 1021.4
20210922012037 69 350 0.0 0.0 0.00 0.03 0.03 99 1021.0
20210922011037 69 350 0.0 0.0 0.00 0.03 0.03 99 1021.2
20210922010037 69 350 0.0 0.0 0.00 0.03 0.03 99 1021.2
20210922005037 69 350 0.0 0.0 0.00 0.03 0.03 99 1021.2
20210922004037 69 350 0.0 0.0 0.00 0.03 0.03 99 1020.9
20210922001038 69 350 0.0 0.0 0.00 0.03 0.03 99 1020.7
20210922000036 70 350 0.0 0.0 0.00 0.03 0.03 98 1020.5
20210921235037 70 350 0.0 0.0 0.00 0.03 0.03 98 1020.5
20210921233037 70 350 0.0 0.0 0.00 0.03 0.03 98 1020.1
20210921231038 70 350 0.0 0.0 0.00 0.03 0.03 98 1019.8
20210921230036 70 350 0.0 0.0 0.00 0.03 0.03 98 1019.6
20210921225037 71 350 0.0 0.0 0.00 0.03 0.03 98 1019.8
20210921224037 71 350 0.0 0.0 0.00 0.03 0.03 98 1019.7
20210921223037 71 350 0.0 0.0 0.00 0.03 0.03 98 1019.9
20210921220036 71 350 0.0 0.0 0.01 0.03 0.03 98 1020.0
20210921215037 71 350 0.0 1.0 0.01 0.03 0.03 98 1019.9
20210921214041 72 350 0.0 1.0 0.01 0.03 0.03 99 1019.9
20210921213037 72 350 0.0 2.0 0.01 0.03 0.03 99 1019.8
20210921212038 71 73 0.0 0.0 0.00 0.02 0.02 99 1019.9
20210921211037 71 73 0.0 0.0 0.00 0.02 0.02 99 1020.0
20210921210035 71 73 0.0 0.0 0.00 0.02 0.02 99 1020.0
20210921205037 71 73 0.0 0.0 0.00 0.02 0.02 99 1020.1
20210921204037 71 73 0.0 0.0 0.00 0.02 0.02 99 1019.9
20210921201038 71 45 0.0 1.0 0.00 0.02 0.02 99 1020.2
20210921195037 71 45 0.0 1.0 0.00 0.02 0.02 99 1020.6
20210921194037 71 54 0.0 0.0 0.00 0.02 0.02 99 1020.7
20210921193037 71 54 0.0 0.0 0.00 0.02 0.02 99 1020.9
20210921191037 71 54 0.0 0.0 0.00 0.02 0.02 99 1021.1
20210921190035 71 54 0.0 1.0 0.00 0.02 0.02 99 1021.3
20210921185037 71 54 0.0 0.0 0.00 0.02 0.02 99 1021.4
20210921184037 71 54 0.0 1.0 0.00 0.02 0.02 99 1021.6
20210921183036 71 54 0.0 0.0 0.00 0.02 0.02 99 1021.9
20210921180036 71 54 0.0 0.0 0.00 0.03 0.02 99 1022.5
20210921174037 71 54 0.0 0.0 0.00 0.03 0.02 99 1022.7
20210921173038 71 54 0.0 0.0 0.00 0.03 0.02 99 1022.7
20210921172037 70 54 0.0 0.0 0.00 0.03 0.02 99 1022.9